Cloud_Cover
86 95 6 6 1 0 0 2 4 0 5 100 80 8 5 5 5 5 0 0 0 0 0 4 4 5 5 0 0 0 1 0 0 0 0 0 0 0 0 0 0 0 0 0 0
100 99 74 15 0 4 1 0 0 0 3 2 5 5 5 3 0 5 40 5 5 4 5 4 2 2 1 5 5 4 3 1 5 0 0 0 0 0 0 0 0 0 0 0 0
89 100 100 100 85 0 0 0 0 0 0 0 2 5 28 6 35 5 100 68 96 7 4 5 5 5 5 5 5 0 4 1 0 0 0 0 0 0 0 0 0 0 5 5 5
30 66 40 68 94 44 11 0 0 0 6 10 89 88 46 58 97 80 25 100 100 89 0 2 4 5 5 4 0 0 0 0 0 2 5 2 0 0 0 0 2 6 5 5 5
100 90 57 70 65 96 66 55 100 100 100 100 100 44 29 90 94 96 100 100 14 3 1 0 0 0 0 0 0 0 0 5 5 6 5 5 4 5 4 5 5 98 25 5 58
34 93 100 100 100 100 100 100 100 100 100 100 100 100 100 100 100 100 92 35 5 4 5 1 4 4 5 5 1 1 0 2 10 6 5 5 76 6 59 34 5 84 29 23 10
100 86 99 100 100 100 100 100 100 100 100 100 100 100 100 100 89 84 39 1 0 5 5 5 5 5 5 5 5 18 12 5 5 5 5 5 5 5 29 96 65 34 100 29 100
85 100 99 100 100 100 100 75 68 58 92 99 64 66 5 18 34 3 0 0 0 3 5 5 5 5 5 7 50 97 85 50 5 12 5 18 5 18 79 30 63 37 5 90 100
27 59 50 18 100 64 11 5 60 14 41 14 21 26 7 6 6 1 0 0 0 0 1 1 0 0 4 5 33 41 94 90 42 9 5 5 12 67 32 21 91 60 88 100 100
99 100 100 100 81 7 5 93 5 18 12 24 8 4 5 16 13 14 5 4 0 0 0 0 0 0 3 4 17 32 70 76 77 22 5 5 23 5 5 34 56 58 94 91 60
100 100 100 100 100 98 98 93 50 60 8 23 46 35 34 93 96 100 100 5 5 5 2 2 0 2 0 0 1 0 0 0 7 23 46 7 81 74 36 94 100 96 41 70 100
100 100 100 100 93 100 83 94 62 90 54 34 99 79 92 100 80 85 5 5 5 5 5 5 3 0 0 4 5 5 4 2 5 5 5 22 84 95 39 89 100 100 100 100 100
100 100 100 100 61 80 97 100 92 60 62 3 27 85 61 34 19 18 43 30 15 39 5 5 5 5 5 5 5 5 5 5 5 79 83 92 65 100 100 100 100 100 100 100 100
100 100 100 100 85 64 100 6 5 17 85 10 5 5 5 5 82 100 100 100 99 100 78 5 25 5 40 5 52 5 5 5 5 100 100 98 100 100 100 100 100 100 100 100 100
50 100 100 100 100 99 69 5 94 69 33 3 6 5 6 32 39 100 100 100 100 95 96 76 52 81 60 73 67 5 5 8 92 100 100 100 100 100 100 99 100 98 82 47 32
5 4 71 84 49 88 96 16 10 51 52 36 64 66 53 83 91 100 100 100 66 95 48 88 100 95 100 5 5 5 5 92 98 100 100 100 100 100 23 35 40 65 69 27 5
4 4 11 100 94 62 100 51 50 89 12 75 81 97 6 5 10 100 100 100 100 84 62 97 100 100 69 5 5 16 63 100 100 100 100 100 100 100 62 95 72 44 5 4 5
4 31 0 88 99 64 99 31 65 40 97 27 41 46 5 65 34 100 100 100 100 75 100 100 100 100 60 68 10 61 99 100 100 100 100 100 100 91 96 77 58 7 5 0 5
2 5 10 56 97 99 50 28 62 94 96 100 34 3 73 5 5 78 100 100 100 100 100 100 87 56 63 91 97 100 100 100 100 100 100 100 100 100 100 83 23 5 5 5 5
4 3 7 1 59 98 71 35 8 49 86 69 5 5 76 100 100 86 99 100 100 100 98 97 50 59 85 50 100 100 100 100 100 100 100 100 100 100 92 56 5 5 5 5 5
5 100 99 95 97 57 100 59 100 71 23 19 24 63 80 80 99 100 100 86 100 100 100 96 70 85 90 96 100 100 100 100 100 100 100 100 100 89 98 16 5 5 5 5 41
4 90 19 100 100 100 100 100 95 97 34 35 83 100 100 100 98 100 72 100 36 100 100 100 95 96 89 100 100 100 100 100 100 100 100 100 85 82 58 5 28 5 5 5 98
14 52 99 100 100 100 100 100 100 100 100 100 100 100 100 100 97 100 100 100 99 100 100 100 96 95 100 100 100 100 100 100 100 100 100 99 84 100 14 5 5 5 5 86 99
52 45 99 100 100 100 100 100 100 100 87 100 100 100 100 100 100 100 84 81 99 100 100 100 100 100 100 100 100 100 100 100 100 100 100 100 57 100 8 5 5 5 19 96 100
98 88 85 100 100 100 100 100 100 96 100 100 98 100 100 100 71 97 77 86 100 100 100 100 100 100 100 100 100 100 100 100 100 100 100 100 77 67 5 0 5 27 96 100 99
98 82 34 93 100 100 100 100 100 100 100 100 100 100 100 100 100 100 100 100 100 100 100 100 100 100 100 100 100 100 100 100 100 100 100 100 93 77 4 2 5 59 100 93 86
63 99 88 100 98 100 100 100 99 100 73 100 100 100 100 100 99 96 100 100 100 100 100 100 100 100 100 100 100 100 100 100 100 100 100 97 88 6 2 0 5 5 100 83 95